Grand Junction, CO

5:00 AM MDT on April 30, 2017 (GMT -0600)
Walker

Weather History for KGJT - July, 2014

Change the Weather History Date:

Sunday, July 20, 2014

  Actual Average Record
Temperature  
Mean Temperature 81 °F 79 °F  
Max Temperature 95 °F 94 °F 105 °F (2005)
Min Temperature 66 °F 64 °F 53 °F (1997)
Degree Days  
Heating Degree Days 0 0  
Month to date heating degree days 0 0  
Since 1 June heating degree days 19 22  
Since 1 July heating degree days 0 0  
Cooling Degree Days 16 14  
Month to date cooling degree days 308 264  
Year to date cooling degree days 565 546  
Since 1 June cooling degree days 506 495  
Growing Degree Days 30 (Base 50)    
Moisture  
Dew Point 38 °F    
Average Humidity 24    
Maximum Humidity 33    
Minimum Humidity 14    
Precipitation  
Precipitation T in 0.02 in 0.24 in (1930)
Month to date precipitation 0.05 0.35  
Year to date precipitation 3.96 4.64  
Snow  
Snow 0.00 in 0.00 in 0.00 in (2015)
Month to date snowfall 0.0 0.0  
Since 1 June snowfall 0.0 0.0  
Since 1 July snowfall 0.0 0.0  
Snow Depth 0.00 in    
Sea Level Pressure  
Sea Level Pressure 29.82 in    
Wind  
Wind Speed 12 mph (SE)    
Max Wind Speed 25 mph    
Max Gust Speed 31 mph    
Visibility 10 miles    
Events      
T = Trace of Precipitation, MM = Missing Value Source: NWS Daily Summary

Daily Weather History Graph

Daily Weather History Graph

Search for Another Location

Airport or City:

Trip Planner

Search our weather history database for the weather conditions in past years. The results will help you decide how hot, cold, wet, or windy it might be!

Date:

Astronomy

Jul. 20, 2014 Rise Set
Actual Time 6:04 AM MDT 8:36 PM MDT
Civil Twilight 5:33 AM MDT 9:06 PM MDT
Nautical Twilight 4:55 AM MDT 9:45 PM MDT
Astronomical Twilight 4:12 AM MDT 10:27 PM MDT
Moon 1:16 AM MDT (7/20) 3:23 PM MDT (7/20)
Length of Visible Light 15h 33m
Length of Day
14h 31m
Waning Crescent, 33% of the Moon is Illuminated
Jul 20
Waning Crescent
Jul 26
New
Aug 3
First Quarter
Aug 10
Full
Aug 17
Last Quarter

Hourly Weather History & Observations

Time (MDT) Temp. Dew Point Humidity Pressure Visibility Wind Dir Wind Speed Gust Speed Precip Events Conditions
12:53 AM 73.9 °F 33.1 °F 22% 29.76 in 10.0 mi ESE 8.1 mph - N/A   Clear
1:53 AM 75.9 °F 33.1 °F 21% 29.75 in 10.0 mi ESE 12.7 mph - N/A   Clear
2:53 AM 75.0 °F 35.1 °F 23% 29.76 in 10.0 mi ESE 13.8 mph - N/A   Clear
3:53 AM 70.0 °F 37.0 °F 30% 29.78 in 10.0 mi ESE 10.4 mph - N/A   Clear
4:53 AM 70.0 °F 36.0 °F 29% 29.80 in 10.0 mi ESE 15.0 mph - N/A   Clear
5:53 AM 70.0 °F 36.0 °F 29% 29.82 in 10.0 mi East 11.5 mph - N/A   Clear
6:53 AM 69.1 °F 37.0 °F 31% 29.83 in 10.0 mi ESE 11.5 mph - N/A   Clear
7:53 AM 73.9 °F 39.0 °F 28% 29.86 in 10.0 mi SE 11.5 mph - N/A   Clear
8:53 AM 77.0 °F 41.0 °F 28% 29.86 in 10.0 mi SE 13.8 mph - N/A   Clear
9:53 AM 82.0 °F 39.0 °F 22% 29.86 in 10.0 mi South 9.2 mph - N/A   Clear
10:53 AM 84.9 °F 37.0 °F 18% 29.86 in 10.0 mi SSW 4.6 mph - N/A   Clear
11:53 AM 89.1 °F 35.1 °F 15% 29.83 in 10.0 mi West 6.9 mph - N/A   Clear
12:53 PM 91.0 °F 37.9 °F 15% 29.84 in 10.0 mi WNW 12.7 mph 20.7 mph N/A   Clear
1:53 PM 93.0 °F 37.9 °F 15% 29.82 in 10.0 mi WNW 17.3 mph - N/A   Clear
2:53 PM 87.1 °F 39.9 °F 19% 29.86 in 10.0 mi West 21.9 mph 28.8 mph N/A   Clear
3:53 PM 88.0 °F 39.9 °F 18% 29.83 in 10.0 mi NW 11.5 mph - 0.00 in   Clear
4:53 PM 90.0 °F 37.0 °F 15% 29.80 in 10.0 mi Calm Calm - N/A   Clear
5:53 PM 88.0 °F 39.0 °F 18% 29.80 in 10.0 mi SSW 10.4 mph - N/A   Scattered Clouds
6:53 PM 90.0 °F 37.9 °F 16% 29.78 in 10.0 mi SE 10.4 mph - N/A   Scattered Clouds
7:53 PM 88.0 °F 39.9 °F 18% 29.78 in 10.0 mi SE 10.4 mph 19.6 mph N/A   Clear
8:53 PM 84.0 °F 44.1 °F 25% 29.79 in 10.0 mi SSE 11.5 mph - N/A   Clear
9:53 PM 82.9 °F 45.0 °F 26% 29.81 in 10.0 mi SSE 13.8 mph 21.9 mph N/A   Clear
10:53 PM 80.1 °F 44.1 °F 28% 29.83 in 10.0 mi ESE 15.0 mph 25.3 mph N/A   Clear
11:53 PM 73.9 °F 43.0 °F 33% 29.84 in 10.0 mi SE 9.2 mph - N/A   Clear